KLM26Y LOWW-EHAM

Flight info

Callsign KLM26Y
Flight time N/A
Altitude 38000
Route BUWUT2B/16 BUWUT DCT DITIS DCT VARIK DCT KATCE DCT NORKU
Aircraft MD11/H-SDE1E2E3FGHIJ2J3J4J5M1RWXY/LB1D1

Departure

Time N/A
Airport Vienna International Airport (LOWW)

Arrival

Time 2026-05-03 20:23
Airport Amsterdam Airport Schiphol (EHAM)
Time Latitude Longitude Altitude Speed Heading
2026-05-03 20:15 52.51403 5.20582 6775 ft 264 kts 269°
2026-05-03 20:15 52.51422 5.17588 6386 ft 261 kts 269°
2026-05-03 20:15 52.51441 5.14616 5969 ft 259 kts 269°
2026-05-03 20:15 52.51459 5.11666 5563 ft 257 kts 269°
2026-05-03 20:16 52.51475 5.08750 5182 ft 254 kts 269°
2026-05-03 20:16 52.51491 5.05873 4837 ft 250 kts 269°
2026-05-03 20:16 52.51506 5.03028 4478 ft 249 kts 269°
2026-05-03 20:16 52.51521 5.00202 4134 ft 246 kts 269°
2026-05-03 20:17 52.51535 4.97465 3968 ft 235 kts 269°
2026-05-03 20:17 52.51547 4.94805 3709 ft 230 kts 269°
2026-05-03 20:17 52.51558 4.92236 3459 ft 226 kts 269°
2026-05-03 20:17 52.51569 4.89704 3228 ft 220 kts 269°
2026-05-03 20:18 52.51579 4.87214 2969 ft 214 kts 269°
2026-05-03 20:18 52.51588 4.84741 2716 ft 217 kts 269°
2026-05-03 20:18 52.51596 4.82274 2461 ft 216 kts 269°
2026-05-03 20:18 52.51603 4.79816 2198 ft 215 kts 269°
2026-05-03 20:19 52.51606 4.77364 2025 ft 214 kts 267°
2026-05-03 20:19 52.51324 4.75021 1991 ft 202 kts 244°
2026-05-03 20:19 52.50437 4.73354 1993 ft 196 kts 212°
2026-05-03 20:19 52.49141 4.72690 2014 ft 198 kts 192°
2026-05-03 20:20 52.47781 4.72351 2005 ft 193 kts 190°
2026-05-03 20:20 52.46532 4.72127 1982 ft 172 kts 187°
2026-05-03 20:20 52.45349 4.72023 1868 ft 169 kts 186°
2026-05-03 20:20 52.44189 4.71927 1654 ft 165 kts 186°
2026-05-03 20:21 52.43107 4.71833 1381 ft 149 kts 187°
2026-05-03 20:21 52.42097 4.71739 1190 ft 143 kts 186°
2026-05-03 20:21 52.41107 4.71647 1011 ft 142 kts 186°
2026-05-03 20:21 52.40117 4.71554 819 ft 142 kts 185°
2026-05-03 20:22 52.39126 4.71462 639 ft 143 kts 185°
2026-05-03 20:22 52.38131 4.71371 448 ft 143 kts 184°
2026-05-03 20:22 52.37136 4.71289 255 ft 143 kts 184°
2026-05-03 20:22 52.36141 4.71191 66 ft 143 kts 184°
2026-05-03 20:23 52.35215 4.71107 5 ft 115 kts 182°
2026-05-03 20:23 52.34551 4.71048 6 ft 85 kts 183°
2026-05-03 20:23 52.34044 4.71003 4 ft 48 kts 183°
2026-05-03 20:23 52.33817 4.71048 6 ft 29 kts 160°
2026-05-03 20:24 52.33645 4.71187 6 ft 26 kts 154°
2026-05-03 20:24 52.33489 4.71234 7 ft 22 kts 181°
2026-05-03 20:24 52.33342 4.71222 6 ft 20 kts 184°
2026-05-03 20:24 52.33220 4.71269 7 ft 16 kts 136°
2026-05-03 20:25 52.33132 4.71424 7 ft 21 kts 131°
2026-05-03 20:25 52.33018 4.71627 8 ft 27 kts 132°
2026-05-03 20:25 52.32883 4.71885 7 ft 31 kts 131°
2026-05-03 20:25 52.32840 4.72128 7 ft 24 kts 85°
2026-05-03 20:26 52.32763 4.72367 7 ft 27 kts 133°
2026-05-03 20:26 52.32619 4.72611 7 ft 33 kts 138°
2026-05-03 20:26 52.32436 4.72871 7 ft 35 kts 139°
2026-05-03 20:26 52.32271 4.73101 7 ft 30 kts 139°
2026-05-03 20:27 52.32118 4.73315 7 ft 28 kts 140°
2026-05-03 20:27 52.32052 4.73577 7 ft 24 kts 93°
2026-05-03 20:27 52.32043 4.73846 7 ft 23 kts 93°
2026-05-03 20:27 52.32031 4.74100 6 ft 18 kts 105°
2026-05-03 20:28 52.31947 4.74190 6 ft 14 kts 180°
2026-05-03 20:28 52.31841 4.74181 6 ft 18 kts 183°
2026-05-03 20:28 52.31693 4.74167 7 ft 24 kts 184°
2026-05-03 20:28 52.31516 4.74148 7 ft 24 kts 182°
2026-05-03 20:29 52.31403 4.74175 8 ft 11 kts 134°
2026-05-03 20:29 52.31389 4.74295 8 ft 13 kts 88°
2026-05-03 20:29 52.31395 4.74486 7 ft 20 kts 87°
2026-05-03 20:29 52.31404 4.74754 8 ft 27 kts 87°
2026-05-03 20:30 52.31413 4.75090 5 ft 33 kts 88°
2026-05-03 20:30 52.31415 4.75214 7 ft 4 kts 87°
2026-05-03 20:30 52.31420 4.75292 6 ft 14 kts 85°
2026-05-03 20:30 52.31428 4.75478 6 ft 20 kts 86°
2026-05-03 20:31 52.31437 4.75725 6 ft 22 kts 87°
2026-05-03 20:31 52.31446 4.75982 7 ft 25 kts 87°
2026-05-03 20:31 52.31457 4.76289 7 ft 28 kts 86°
2026-05-03 20:31 52.31468 4.76601 7 ft 27 kts 86°
2026-05-03 20:32 52.31479 4.76903 6 ft 26 kts 86°
2026-05-03 20:32 52.31474 4.77176 9 ft 15 kts 122°
2026-05-03 20:32 52.31396 4.77198 6 ft 12 kts 197°
2026-05-03 20:32 52.31306 4.77106 6 ft 19 kts 214°
2026-05-03 20:33 52.31188 4.76980 6 ft 19 kts 213°
2026-05-03 20:33 52.31097 4.76881 6 ft 12 kts 214°
2026-05-03 20:33 52.31041 4.76852 6 ft 7 kts 171°
2026-05-03 20:33 52.31004 4.76892 6 ft 7 kts 141°
2026-05-03 20:34 52.30981 4.76923 6 ft 0 kts 139°